Regional Weather Roundup
Issued by NWS

Home | Current Version | Previous Version | Text Only | Print | Product List | Glossary On
Versions: 1 2 3 4 5 6 7 8 9 10 11 12 13 14 15 16 17 18 19 20 21 22 23 24 25 26 27 28 29 30 31 32 33 34 35 36 37 38 39 40 41 42 43 44 45 46 47 48 49 50
000
ASUS45 KBOU 211007
RWRCO

WEATHER ROUNDUP FOR COLORADO
NATIONAL WEATHER SERVICE DENVER/BOULDER CO
300 AM MST FRI NOV 21 2014

NOTE: "FAIR" INDICATES FEW OR NO CLOUDS BELOW 12000 FEET WITH NO
SIGNIFICANT WEATHER AND/OR OBSTRUCTIONS TO VISIBILITY.

COZ001>005-013-030-031-211100-
...NORTHWEST COLORADO...

CITY           SKY/WX    TMP DP  RH WIND       PRES   REMARKS
CRAIG          MOCLDY    25  19  78 E3        30.04F
HAYDEN         CLOUDY    28  18  64 E9        30.04S WCI  20
MEEKER         PTCLDY    28  22  78 CALM      30.05S
MOUNT WERNER   NOT AVBL
STEAMBOAT SPGS CLOUDY    24  18  76 CALM      30.05S
WALDEN         MOCLDY    21  14  73 SE3       30.03S
$$

COZ006>008-011-211100-
...WEST CENTRAL VALLEYS...

CITY           SKY/WX    TMP DP  RH WIND       PRES   REMARKS
GRAND JUNCTION CLEAR     23  16  74 E3        30.06S
MONTROSE       CLEAR     23  18  81 S6        30.09F WCI  16
EAGLE          CLOUDY    25  21  86 CALM      30.10F
RIFLE          CLOUDY    30  23  75 CALM      30.08S
DELTA          CLEAR     26  16  65 CALM      30.09R
NUCLA          CLEAR     28  23  80 SE6       30.10S WCI  22
$$

COZ017>023-064>068-211100-
...SOUTHWEST COLORADO...

CITY           SKY/WX    TMP DP  RH WIND       PRES   REMARKS
DURANGO        PTCLDY    21  16  81 E3        30.07S
CORTEZ         CLEAR     20  17  88 CALM      30.06F
PAGOSA SPRINGS PTCLDY    22  14  72 CALM      30.09F
TELLURIDE      CLEAR     25  19  75 SE7       30.10S WCI  18
WOLF CREEK PAS CLEAR     16   9  73 SW15      30.11S WCI   1
$$

COZ009-010-012-014-032>034-037-058>063-211100-
...CENTRAL COLORADO...

CITY           SKY/WX    TMP DP  RH WIND       PRES   REMARKS
ASPEN          CLOUDY    24  16  71 CALM      30.06S
BUENA VISTA    NOT AVBL
COPPER MTN     CLOUDY    23  10  58 SW12      30.08S WCI  12
BERTHOUD PASS  MOCLDY    12   7  79 N17       30.07S WCI  -5
COTTONWOOD PAS PTCLDY    32  16  51 N8G16     30.04F WCI  25
GUNNISON       PTCLDY    16  10  79 CALM      30.13F
KREMMLING      CLOUDY    18  12  79 CALM      30.10S
LEADVILLE      CLOUDY    14   5  67 E7        30.05F WCI   4
SALIDA         PTCLDY    33  13  43 CALM      30.11S
SUNLIGHT       CLOUDY    23  18  80 CALM      30.09F
WILKERSON PASS PTCLDY    21   9  58 W8        30.07R WCI  12
$$

COZ069>075-211100-
...SAN LUIS VALLEY/SANGRE DE CRISTO MOUNTAINS...

CITY           SKY/WX    TMP DP  RH WIND       PRES   REMARKS
ALAMOSA        PTCLDY     9   5  84 CALM      30.07R
LA VETA PASS   CLEAR     23  12  63 S12G21    30.05S WCI  12
SAGUACHE       CLEAR     23  16  74 N10       30.08S WCI  12
$$

COZ035-036-038>040-211100-
...NORTHERN COLORADO FRONT RANGE...

CITY           SKY/WX    TMP DP  RH WIND       PRES   REMARKS
DENVER INTL AP PTCLDY    33  24  69 SW6       29.95S WCI  28
DMNS CITY PARK   N/A     33  22  62 S6        29.96S WCI  28
AURORA         PTCLDY    34  21  58 S9        29.96S WCI  27
FRONT RANGE AP CLEAR     32  27  80 S13       29.96S WCI  22
ERIE MUNI ARPT CLEAR     25  23  91 CALM      29.95S
BOULDER MUN AP CLEAR     32  23  69 SW3       29.95S
CENTENNIAL     PTCLDY    31  21  66 SE6       29.96S WCI  25
BROOMFIELD     CLEAR     39  19  45 CALM      29.96R
FORT COLLINS   CLEAR     32  27  80 CALM      29.96S
LONGMONT       CLEAR     28  22  79 W5        29.97S WCI  23
$$

COZ041-046-047-076>085-087-088-211100-
...PIKES PEAK/PALMER DIVIDE AND SOUTHERN FOOTHILLS...

CITY           SKY/WX    TMP DP  RH WIND       PRES   REMARKS
COLO. SPRINGS  MOCLDY    28  20  71 N7        29.98F WCI  21
A. F. ACADEMY  CLEAR     25  16  68 N6        29.98F WCI  18
ELLICOTT       PTCLDY    27  21  78 NE6       29.97S WCI  20
FALCON         NOT AVBL
FORT CARSON    PTCLDY    29  20  69 NW10      29.97S WCI  20
LIMON          MOCLDY    22  19  89 CALM      29.98S
MONUMENT HILL  CLEAR     32  12  43 SW9       29.97S WCI  24
TRINIDAD       CLEAR     32  20  61 W7        29.98S WCI  26
$$

COZ042>045-048>051-090-091-211100-
...NORTHEAST COLORADO...

CITY           SKY/WX    TMP DP  RH WIND       PRES   REMARKS
GREELEY ARPT   PTCLDY    21  12  68 CALM      29.96S
AKRON          MOCLDY    35  23  61 SW10      29.95S WCI  27
BURLINGTON     CLOUDY    35  26  69 S12       30.00S WCI  27
WRAY           CLOUDY    30  20  65 CALM      29.99F
STERLING       MOCLDY    30  23  74 CALM      29.95S
HOLYOKE        CLOUDY    32  23  69 S3        29.97F
FORT MORGAN    MOCLDY    30  22  71 W5        29.95S WCI  25
$$

COZ086-089-092>099-211100-
...SOUTHEAST COLORADO...

CITY           SKY/WX    TMP DP  RH WIND       PRES   REMARKS
PUEBLO         PTCLDY    28  25  88 CALM      29.98S
LA JUNTA       CLEAR     28  25  88 CALM      29.98S
LAMAR          PTCLDY    31  26  82 S5        29.99S WCI  26
SPRINGFIELD      N/A     30  27  88 SW9       30.00F WCI  22
$$



USA.gov is the U.S. government's official web portal to all federal, state and local government web resources and services.